When you browse on this site, cookies collect data to enhance your experience and personalize the content and advertising you see.
Visit our Privacy Policy to learn more. By continuing to use the site, you agree to this use of cookies and data.
  • In Latvia
  • List of Countries
  • For 7 days
  • Water Temperature
  • Satellite Maps
  • Weather Map
  • Weather Widgets
  • user-avatar
    Login

    Hourly Weather Iecava

    Today, 21 April, Sunday

    Time Temperature Precipitation Wind Pressure Humidity
    00:00 +7°C° 0 mm 3 mps 766 mmHg 66%
    01:00 +5°C° 0 mm 3 mps 766 mmHg 66%
    02:00 +7°C° 0 mm 2 mps 766 mmHg 67%
    03:00 +6°C° 0 mm 2 mps 766 mmHg 67%
    04:00 +5°C° 0 mm 2 mps 765 mmHg 66%
    05:00 +5°C° 0 mm 2 mps 765 mmHg 65%
    06:00 +5°C° 0 mm 2 mps 765 mmHg 65%
    07:00 +6°C° 0 mm 2 mps 765 mmHg 64%
    08:00 +7°C° 0 mm 3 mps 765 mmHg 64%
    09:00 +8°C° 0 mm 3 mps 765 mmHg 58%
    10:00 +10°C° 0 mm 3 mps 765 mmHg 52%
    11:00 +11°C° 0 mm 3 mps 765 mmHg 47%
    12:00 +12°C° 0 mm 4 mps 765 mmHg 47%
    13:00 +13°C° 0 mm 4 mps 765 mmHg 46%
    14:00 +13°C° 0 mm 4 mps 765 mmHg 46%
    15:00 +14°C° 0 mm 4 mps 765 mmHg 43%
    16:00 +14°C° 0 mm 4 mps 765 mmHg 40%
    17:00 +15°C° 0 mm 4 mps 764 mmHg 37%
    18:00 +13°C° 0 mm 4 mps 765 mmHg 43%
    19:00 +12°C° 0 mm 3 mps 765 mmHg 49%
    20:00 +10°C° 0 mm 2 mps 765 mmHg 56%
    21:00 +9°C° 0 mm 2 mps 765 mmHg 61%
    22:00 +9°C° 0 mm 2 mps 765 mmHg 66%
    23:00 +8°C° 0 mm 2 mps 766 mmHg 71%

    Tomorrow, 22 April, Monday

    Time Temperature Precipitation Wind Pressure Humidity
    00:00 +8°C° 0 mm 2 mps 766 mmHg 74%
    01:00 +7°C° 0 mm 2 mps 766 mmHg 77%
    02:00 +7°C° 0 mm 3 mps 766 mmHg 81%
    03:00 +7°C° 0 mm 2 mps 767 mmHg 82%
    04:00 +6°C° 0 mm 2 mps 767 mmHg 83%
    05:00 +6°C° 0 mm 2 mps 767 mmHg 85%
    06:00 +7°C° 0 mm 2 mps 767 mmHg 78%
    07:00 +9°C° 0 mm 3 mps 768 mmHg 70%
    08:00 +10°C° 0 mm 3 mps 768 mmHg 63%
    09:00 +12°C° 0 mm 3 mps 768 mmHg 58%
    10:00 +14°C° 0 mm 4 mps 768 mmHg 52%
    11:00 +17°C° 0 mm 4 mps 768 mmHg 47%
    12:00 +17°C° 0 mm 4 mps 768 mmHg 45%
    13:00 +18°C° 0 mm 4 mps 768 mmHg 44%
    14:00 +19°C° 0 mm 4 mps 768 mmHg 42%
    15:00 +18°C° 0 mm 4 mps 768 mmHg 43%
    16:00 +18°C° 0 mm 4 mps 768 mmHg 43%
    17:00 +18°C° 0 mm 3 mps 768 mmHg 43%
    18:00 +16°C° 0 mm 3 mps 768 mmHg 49%
    19:00 +15°C° 0 mm 2 mps 768 mmHg 56%
    20:00 +13°C° 0 mm 2 mps 768 mmHg 62%
    21:00 +12°C° 0 mm 2 mps 769 mmHg 63%
    22:00 +10°C° 0 mm 2 mps 769 mmHg 65%
    23:00 +9°C° 0 mm 2 mps 769 mmHg 66%

    Day after tomorrow, 23 April, Tuesday

    Time Temperature Precipitation Wind Pressure Humidity
    00:00 +9°C° 0 mm 2 mps 770 mmHg 66%
    01:00 +8°C° 0 mm 2 mps 770 mmHg 67%
    02:00 +8°C° 0 mm 2 mps 770 mmHg 68%
    03:00 +7°C° 0 mm 2 mps 770 mmHg 69%
    04:00 +7°C° 0 mm 2 mps 770 mmHg 70%
    05:00 +6°C° 0 mm 2 mps 770 mmHg 71%
    06:00 +8°C° 0 mm 2 mps 771 mmHg 67%
    07:00 +10°C° 0 mm 2 mps 771 mmHg 62%
    08:00 +12°C° 0 mm 2 mps 771 mmHg 58%
    09:00 +14°C° 0 mm 2 mps 771 mmHg 51%
    10:00 +16°C° 0 mm 3 mps 771 mmHg 44%
    11:00 +17°C° 0 mm 3 mps 770 mmHg 37%
    12:00 +18°C° 0 mm 4 mps 770 mmHg 36%
    13:00 +18°C° 0 mm 4 mps 770 mmHg 35%
    14:00 +19°C° 0 mm 4 mps 769 mmHg 34%
    15:00 +19°C° 0 mm 4 mps 769 mmHg 35%
    16:00 +19°C° 0 mm 4 mps 769 mmHg 36%
    17:00 +18°C° 0 mm 4 mps 768 mmHg 38%
    18:00 +17°C° 0 mm 3 mps 768 mmHg 44%
    19:00 +14°C° 0 mm 3 mps 768 mmHg 51%
    20:00 +13°C° 0 mm 2 mps 768 mmHg 58%
    21:00 +12°C° 0 mm 2 mps 768 mmHg 60%
    22:00 +10°C° 0 mm 2 mps 769 mmHg 61%
    23:00 +10°C° 0 mm 2 mps 769 mmHg 63%

    24 April, Wednesday

    Time Temperature Precipitation Wind Pressure Humidity
    00:00 +9°C° 0 mm 3 mps 769 mmHg 63%
    01:00 +9°C° 0 mm 3 mps 769 mmHg 64%
    02:00 +9°C° 0 mm 3 mps 769 mmHg 64%
    03:00 +9°C° 0 mm 3 mps 769 mmHg 66%
    04:00 +8°C° 0 mm 3 mps 769 mmHg 67%
    05:00 +8°C° 0 mm 3 mps 769 mmHg 68%
    06:00 +10°C° 0 mm 4 mps 768 mmHg 63%
    07:00 +10°C° 0 mm 5 mps 768 mmHg 57%
    08:00 +13°C° 0 mm 5 mps 768 mmHg 52%
    09:00 +14°C° 0 mm 6 mps 768 mmHg 48%
    10:00 +16°C° 0 mm 6 mps 767 mmHg 44%
    11:00 +17°C° 0 mm 7 mps 767 mmHg 40%
    12:00 +17°C° 0 mm 7 mps 767 mmHg 40%
    13:00 +18°C° 0 mm 7 mps 766 mmHg 39%
    14:00 +20°C° 0 mm 7 mps 766 mmHg 38%
    15:00 +20°C° 0 mm 7 mps 765 mmHg 39%
    16:00 +19°C° 0 mm 6 mps 765 mmHg 40%
    17:00 +19°C° 0 mm 6 mps 765 mmHg 42%
    18:00 +17°C° 0 mm 5 mps 765 mmHg 47%
    19:00 +15°C° 0 mm 5 mps 765 mmHg 51%
    20:00 +14°C° 0 mm 4 mps 765 mmHg 56%
    21:00 +14°C° 0 mm 4 mps 765 mmHg 57%
    22:00 +13°C° 0 mm 4 mps 765 mmHg 57%
    23:00 +13°C° 0 mm 5 mps 765 mmHg 58%

    25 April, Thursday

    Time Temperature Precipitation Wind Pressure Humidity
    00:00 +13°C° 0 mm 4 mps 765 mmHg 59%
    01:00 +12°C° 0 mm 4 mps 765 mmHg 60%
    02:00 +12°C° 0 mm 4 mps 765 mmHg 61%
    03:00 +11°C° 0 mm 4 mps 764 mmHg 62%
    04:00 +11°C° 0 mm 4 mps 764 mmHg 63%
    05:00 +11°C° 0 mm 4 mps 764 mmHg 65%
    06:00 +12°C° 0 mm 5 mps 764 mmHg 63%
    07:00 +12°C° 0 mm 5 mps 764 mmHg 62%
    08:00 +13°C° 0 mm 5 mps 764 mmHg 60%
    09:00 +15°C° 0 mm 5 mps 764 mmHg 58%
    10:00 +16°C° 0 mm 5 mps 763 mmHg 55%
    11:00 +19°C° 0 mm 5 mps 763 mmHg 53%
    12:00 +20°C° 0 mm 5 mps 763 mmHg 51%
    13:00 +21°C° 0 mm 5 mps 762 mmHg 50%
    14:00 +22°C° 0 mm 5 mps 762 mmHg 49%
    15:00 +22°C° 0 mm 5 mps 762 mmHg 50%
    16:00 +22°C° 0 mm 5 mps 762 mmHg 51%
    17:00 +22°C° 0 mm 4 mps 761 mmHg 52%
    18:00 +20°C° 0 mm 4 mps 761 mmHg 59%
    19:00 +19°C° 0 mm 3 mps 761 mmHg 66%
    20:00 +17°C° 0 mm 3 mps 761 mmHg 72%
    21:00 +17°C° 0 mm 3 mps 761 mmHg 74%
    22:00 +16°C° 0 mm 3 mps 761 mmHg 75%
    23:00 +16°C° 0 mm 3 mps 761 mmHg 77%

    26 April, Friday

    Time Temperature Precipitation Wind Pressure Humidity
    00:00 +14°C° 0 mm 3 mps 761 mmHg 78%
    01:00 +14°C° 0 mm 3 mps 761 mmHg 79%
    02:00 +13°C° 0 mm 3 mps 760 mmHg 80%
    03:00 +12°C° 0 mm 3 mps 760 mmHg 81%
    04:00 +12°C° 0 mm 3 mps 760 mmHg 82%
    05:00 +11°C° 0 mm 3 mps 760 mmHg 83%
    06:00 +13°C° 0 mm 3 mps 759 mmHg 79%
    07:00 +14°C° 0 mm 3 mps 759 mmHg 75%
    08:00 +16°C° 0 mm 3 mps 759 mmHg 71%
    09:00 +18°C° 0 mm 3 mps 759 mmHg 67%
    10:00 +19°C° 0 mm 3 mps 758 mmHg 62%
    11:00 +21°C° 0 mm 3 mps 758 mmHg 58%
    12:00 +22°C° 0 mm 3 mps 758 mmHg 56%
    13:00 +24°C° 0 mm 3 mps 757 mmHg 54%
    14:00 +25°C° 0 mm 3 mps 757 mmHg 52%
    15:00 +25°C° 0.1 mm 3 mps 757 mmHg 53%
    16:00 +25°C° 0.1 mm 2 mps 757 mmHg 54%
    17:00 +25°C° 0.1 mm 2 mps 756 mmHg 54%
    18:00 +23°C° 0.6 mm 2 mps 756 mmHg 63%
    19:00 +21°C° 0.6 mm 1 mps 756 mmHg 71%
    20:00 +20°C° 0.6 mm 1 mps 756 mmHg 79%
    21:00 +19°C° 0 mm 1 mps 756 mmHg 83%
    22:00 +18°C° 0 mm 1 mps 756 mmHg 86%
    23:00 +16°C° 0 mm 1 mps 756 mmHg 89%
    Show more